Location: Hains Lake
(37.8540°N, 99.8578°W)
Time: 20:33:40
(UTC+00:00)

Daily predictions for brighter satellites

Satellite Brightness Start Highest point End
(mag) Time Altitude Azimuth Time Altitude Azimuth Time Altitude Azimuth
Cosmos 1954 Rocket 4.1 12:03:11 32° NW 12:05:24 55° WSW 12:10:33 10° S
FALCON 9 DEB 3.5 12:08:13 38° SE 12:08:13 38° SE 12:09:49 10° SE
Cosmos 1420 Rocket 4.3 12:05:32 26° WSW 12:07:47 40° WNW 12:12:40 10° N
CZ-4B R/B 3.7 12:03:33 10° NNE 12:09:08 64° ESE 12:14:45 10° S
Cosmos 1634 Rocket 3.9 12:05:10 10° SSW 12:11:18 64° W 12:17:27 10° N
METEOR-M 4.0 12:08:09 10° N 12:13:32 82° WNW 12:18:52 10° SSW
FALCON 9 DEB 2.9 12:14:59 47° SSE 12:14:59 47° SSE 12:16:51 10° SE
PSLV R/B 3.2 12:17:59 41° NNE 12:17:59 41° NNE 12:20:09 10° E
STARLINK 1050 3.4 12:16:57 33° NNW 12:18:22 64° NE 12:21:53 10° ESE
Cosmos 1340 2.5 12:16:54 10° SSW 12:20:35 62° W 12:24:20 10° N
Cosmos 1943 3.2 12:16:40 17° NNW 12:20:58 64° WSW 12:26:30 10° S
STARLINK 1055 3.3 12:19:58 31° NW 12:21:31 69° NE 12:25:03 10° SE
USA 116 4.0 12:19:52 10° S 12:24:12 83° WSW 12:29:07 10° NNW
STARLINK 1022 3.3 12:22:39 29° NW 12:24:19 74° NE 12:27:52 10° SE
Cosmos 1500 4.4 12:22:48 10° SSE 12:26:29 45° E 12:30:09 10° NNE
Cosmos 1741 Rocket 4.0 12:21:28 10° NNW 12:26:43 87° ENE 12:31:56 10° SSE
STARLINK 1042 3.2 12:25:55 27° NW 12:27:42 79° NE 12:31:15 10° SE
STARLINK 1056 3.2 12:29:00 26° NW 12:30:55 85° NE 12:34:28 10° SE
Cosmos 1515 4.1 12:27:50 10° N 12:31:38 66° E 12:35:26 10° SSE
Cosmos 1655 Rocket 4.3 12:25:45 10° N 12:31:58 69° E 12:38:09 10° SSE
PAYLOAD B 4.2 12:27:08 10° N 12:32:34 59° WNW 12:37:59 10° SSW
COSMO-SKYMED 1 3.1 12:28:49 10° SSW 12:32:50 37° W 12:36:18 13° NNW
STARLINK 1054 3.1 12:32:05 24° NW 12:34:08 88° SW 12:37:41 10° SE
Cosmos 1452 Rocket 4.3 12:32:29 10° WSW 12:37:02 29° WNW 12:41:37 10° N
STARLINK 1062 3.1 12:35:03 22° NW 12:37:12 83° SW 12:40:46 10° SE
STARLINK 1053 3.2 12:38:20 21° NW 12:40:37 76° SW 12:44:10 10° SE
DMSP B5D1-3 4.5 12:35:59 10° S 12:41:07 82° WSW 12:46:19 10° NNW
Okean 3 3.4 12:37:42 10° N 12:41:55 89° WSW 12:46:07 10° S
Cosmos 2221 Rocket 3.5 12:37:40 10° NNW 12:42:03 67° W 12:46:25 10° S
Cosmos 405 4.5 12:39:17 10° N 12:42:37 38° ENE 12:45:55 10° SSE
STARLINK 1061 3.2 12:41:10 19° NW 12:43:34 71° SW 12:47:06 10° SE
STARLINK 1027 3.2 12:44:20 21° WNW 12:45:59 46° SW 12:48:48 10° SSE
Cosmos 1850 Rocket 4.1 12:40:48 10° NNW 12:46:04 59° WSW 12:51:17 10° S
STARLINK 1028 3.2 12:44:33 21° WNW 12:46:12 45° SW 12:49:00 10° SSE
STARLINK 1021 3.2 12:44:47 21° WNW 12:46:25 45° SW 12:49:13 10° SSE
STARLINK 1019 3.2 12:44:57 20° WNW 12:46:38 45° SW 12:49:29 10° SSE
STARLINK 1067 3.3 12:44:16 18° NW 12:46:47 65° SW 12:50:19 10° SE
STARLINK 1012 3.2 12:45:12 20° WNW 12:46:52 44° SW 12:49:40 10° SSE
STARLINK 1010 3.2 12:45:26 20° WNW 12:47:06 44° SW 12:49:54 10° SSE
Okean 1 4.1 12:44:03 11° NNW 12:47:16 29° W 12:50:43 10° SSW
STARLINK 1026 3.2 12:45:39 20° WNW 12:47:19 44° SW 12:50:07 10° SSE
STARLINK 1013 3.2 12:45:51 20° WNW 12:47:32 43° SW 12:50:20 10° SSE
STARLINK 1009 3.2 12:46:04 20° WNW 12:47:45 43° SW 12:50:33 10° SSE
STARLINK 1015 3.2 12:46:17 20° WNW 12:48:00 43° SW 12:50:47 10° SSE
Meteor 1-5 Rocket 4.4 12:42:10 10° S 12:48:08 88° E 12:54:02 10° N
STARLINK 1016 3.3 12:46:30 20° WNW 12:48:13 43° SW 12:51:01 10° SSE
STARLINK 1008 3.3 12:46:44 19° WNW 12:48:27 42° SW 12:51:14 10° SSE
STARLINK 1014 3.3 12:46:57 19° WNW 12:48:40 42° SW 12:51:26 10° SSE
STARLINK 1025 3.3 12:47:09 19° WNW 12:48:53 42° SW 12:51:40 10° SSE
STARLINK 1017 3.3 12:47:22 19° WNW 12:49:07 41° SW 12:51:54 10° SSE
STARLINK 1023 3.3 12:47:35 19° WNW 12:49:20 41° SW 12:52:07 10° SSE
STARLINK 1007 3.3 12:47:49 19° WNW 12:49:34 41° SW 12:52:20 10° SSE
STARLINK 1048 3.3 12:48:02 19° WNW 12:49:48 40° SW 12:52:33 10° SSE
STARLINK 1058 3.3 12:47:18 17° WNW 12:49:56 60° SW 12:53:27 10° SE
STARLINK 1049 3.3 12:48:14 19° WNW 12:50:01 40° SW 12:52:47 10° SSE
STARLINK 1034 3.4 12:48:19 18° WNW 12:50:09 41° SW 12:52:58 10° SSE
STARLINK 1051 3.3 12:48:27 18° WNW 12:50:14 40° SW 12:53:00 10° SSE
STARLINK 1052 3.3 12:48:37 18° WNW 12:50:24 40° SW 12:53:10 10° SSE
STARLINK 1037 3.4 12:48:39 18° WNW 12:50:26 40° SW 12:53:12 10° SSE
STARLINK 1059 3.4 12:48:53 18° WNW 12:50:41 39° SW 12:53:26 10° SSE
Cosmos 1733 Rocket 2.9 12:46:23 10° SSW 12:50:41 74° W 12:55:00 10° N
ADEOS Rocket 3.9 12:44:00 10° SSE 12:50:52 57° ENE 12:57:05 10° N
STARLINK 1057 3.4 12:49:06 18° WNW 12:50:55 39° SW 12:53:40 10° SSE
STARLINK 1068 3.4 12:49:32 18° WNW 12:51:21 39° SW 12:54:06 10° SSE
STARLINK 1029 3.4 12:49:45 18° WNW 12:51:34 38° SW 12:54:19 10° SSE
STARLINK 1060 3.4 12:49:58 18° WNW 12:51:48 38° SW 12:54:33 10° SSE
STARLINK 1030 3.4 12:50:09 17° WNW 12:52:02 38° SW 12:54:48 10° SSE
STARLINK 1020 3.4 12:50:24 17° WNW 12:52:15 38° SW 12:54:59 10° SSE
STARLINK 1040 3.6 12:50:45 17° WNW 12:52:33 34° SW 12:55:16 10° SSE
STARLINK 1033 3.5 12:51:04 17° WNW 12:52:55 37° SW 12:55:40 10° SSE
STARLINK 1031 3.5 12:51:16 17° WNW 12:53:08 37° SW 12:55:52 10° SSE
STARLINK 1043 3.4 12:50:22 15° WNW 12:53:08 56° SW 12:56:38 10° SSE
NOAA 6 4.2 12:48:19 10° N 12:53:12 47° WNW 12:58:06 10° SW
Okean O Rocket 2.1 12:49:14 10° N 12:53:19 39° WNW 12:57:23 10° SW
STARLINK 1024 3.5 12:51:27 17° WNW 12:53:22 37° SW 12:56:08 10° SSE
STARLINK 1035 3.5 12:51:42 17° WNW 12:53:36 36° SW 12:56:19 10° SSE
STARLINK 1032 3.5 12:51:56 16° WNW 12:53:49 36° SW 12:56:33 10° SSE
STARLINK 1011 3.5 12:52:05 16° WNW 12:54:01 36° SW 12:56:47 10° SSE
STARLINK 1036 3.5 12:52:20 16° WNW 12:54:15 35° SW 12:56:57 10° SSE
STARLINK 1047 3.6 12:52:46 16° WNW 12:54:42 35° SW 12:57:25 10° SSE
H-2A R/B 3.8 12:51:22 10° SW 12:55:07 30° S 13:09:10 10° ESE
Meteor 1-19 Rocket 4.5 12:49:50 10° NNW 12:55:08 47° W 13:00:32 10° SSW
Meteor 2-4 Rocket 3.6 12:50:44 10° NNW 12:56:12 76° W 13:01:32 10° S
STARLINK 1065 3.5 12:53:23 14° WNW 12:56:16 51° SW 12:59:44 10° SSE
Starlink Launch 2 leader 4.3 12:55:16 13° W 12:56:19 16° SW 12:57:56 10° S
STARLINK 1063 3.7 12:56:35 13° WNW 12:59:35 47° SW 13:03:01 10° SSE
Starlink Launch 2 trailer 4.5 12:58:49 11° W 12:59:59 14° SW 13:01:25 10° SSW
STARLINK 1064 3.8 12:59:34 12° WNW 13:02:41 44° SW 13:06:05 10° SSE
USA 234 4.5 12:58:01 10° NNE 13:02:51 23° NNW 13:07:41 10° WNW
Orbus 7S? 3.7 13:00:52 10° W 13:03:09 21° NW 13:05:11 10° NNE
NOSS 3-2 (C) 4.3 12:58:22 10° SSW 13:03:48 53° ESE 13:09:50 10° NE
Cosmos 332 Rocket 3.9 13:00:23 10° SSW 13:05:12 55° WNW 13:10:02 10° N
STARLINK 1041 3.9 13:02:40 11° WNW 13:05:53 40° SW 13:09:15 10° SSE
STARLINK 1038 4.0 13:05:46 10° WNW 13:09:07 37° SW 13:12:26 10° SSE
ATLAS 3B R/B 4.5 13:04:02 10° S 13:10:08 37° ESE 13:16:08 10° NE
Cosmos 1666 3.2 13:06:59 10° S 13:10:45 64° E 13:14:31 10° NNE
Cosmos 1536 2.8 13:06:49 10° S 13:10:52 78° W 13:14:56 10° N
STARLINK 1046 4.1 13:09:02 10° WNW 13:12:19 35° SW 13:15:36 10° SSE
Okean-O 3.4 13:08:42 10° NNE 13:13:04 58° E 13:17:25 10° S
STARLINK 1044 4.5 13:11:37 10° W 13:13:47 19° SW 13:15:56 10° S
STARLINK 1039 4.3 13:12:18 10° WNW 13:15:33 32° SW 13:18:46 10° SSE
Cosmos 2263 Rocket 3.8 13:13:04 10° WNW 13:15:40 13° NW 13:18:17 10° NNW
STARLINK 1045 4.3 13:13:59 10° WNW 13:17:12 31° SW 13:20:24 10° SSE
NOSS 0 Rocket 4.3 23:38:35 10° SSW 23:44:46 73° WNW 23:51:01 10° NNE
Envisat 4.0 23:41:19 10° ESE 23:45:22 24° ENE 23:49:24 10° NNE
Centaur D-1A AC-31 3.1 23:43:29 10° SSW 23:45:55 19° SSE 23:49:40 10° ESE
Cosmos 2278 Rocket 2.2 23:41:36 10° NNW 23:47:15 67° ENE 23:52:51 10° SSE
Okean O Rocket 2.4 23:43:31 10° S 23:47:46 56° W 23:52:03 10° NNW
USA 215 4.1 23:44:53 10° NE 23:51:00 44° NW 23:57:07 10° WSW
Cosmos 407 Rocket 4.4 23:49:11 10° SSE 23:53:37 30° E 23:58:07 10° NE
Cosmos 2242 Rocket 3.7 23:50:25 10° S 23:54:54 62° E 23:59:25 10° NNE
Aureole 1 Rocket 2.4 23:52:33 10° S 23:55:24 48° ESE 23:58:24 10° NNE
FALCON 9 DEB 4.0 23:52:41 10° WSW 23:56:03 44° NW 23:59:25 10° NE
